Emporia, VA

9:36 PM EST on December 15, 2019 (GMT -0500)
Emporia-Greensville Regional

Weather History for KEMV - October, 2019

Change the Weather History Date:

Saturday, October 19, 2019

  Actual Average Record
Temperature  
Mean Temperature 52 °F -  
Max Temperature 68 °F 73 °F 87 °F (2016)
Min Temperature 35 °F 44 °F 28 °F (2015)
Degree Days  
Heating Degree Days 14    
Growing Degree Days 2 (Base 50)    
Moisture  
Dew Point 42 °F    
Average Humidity 77    
Maximum Humidity 100    
Minimum Humidity 36    
Precipitation  
Precipitation 0.00 in - - ()
Sea Level Pressure  
Sea Level Pressure 30.08 in    
Wind  
Wind Speed 1 mph (SE)    
Max Wind Speed 10 mph    
Max Gust Speed -    
Visibility 10 miles    
Events      
Averages and records for this station are not official NWS values.
T = Trace of Precipitation, MM = Missing Value Source: NWS Daily Summary

Daily Weather History Graph

Daily Weather History Graph

Search for Another Location

Airport or City:

Astronomy

Oct. 19, 2019 Rise Set
Actual Time 7:20 AM EDT 6:28 PM EDT
Civil Twilight 6:54 AM EDT 6:54 PM EDT
Nautical Twilight 6:24 AM EDT 7:24 PM EDT
Astronomical Twilight 5:54 AM EDT 7:54 PM EDT
Moon 10:42 PM EDT (10/19) 12:44 PM EDT (10/19)
Length of Visible Light 12h 00m
Length of Day
11h 07m
Waning Gibbous, 70% of the Moon is Illuminated
Oct 19
Waning Gibbous
Oct 21
Last Quarter
Oct 27
New
Nov 4
First Quarter
Nov 12
Full

Hourly Weather History & Observations

Time (EDT) Temp. Windchill Dew Point Humidity Pressure Visibility Wind Dir Wind Speed Gust Speed Precip Events Conditions
12:15 AM 39.7 °F - 39.6 °F 99% 30.08 in 10.0 mi Calm Calm - N/A   Clear
12:35 AM 40.3 °F - 40.3 °F 100% 30.08 in 10.0 mi Calm Calm - N/A   Clear
12:55 AM 39.6 °F - 39.6 °F 100% 30.07 in 10.0 mi Calm Calm - N/A   Clear
1:15 AM 39.6 °F - 39.6 °F 100% 30.07 in 10.0 mi Calm Calm - N/A   Clear
1:35 AM 39.2 °F - 38.8 °F 99% 30.07 in 10.0 mi Calm Calm - N/A   Clear
1:55 AM 38.7 °F - 38.7 °F 100% 30.09 in 7.0 mi Calm Calm - N/A   Clear
2:15 AM 38.8 °F - 38.8 °F 100% 30.09 in 10.0 mi Calm Calm - N/A   Clear
2:35 AM 38.5 °F - 38.5 °F 100% 30.09 in 10.0 mi Calm Calm - N/A   Clear
2:55 AM 38.3 °F - 38.3 °F 100% 30.09 in 10.0 mi Calm Calm - N/A   Clear
3:15 AM 38.5 °F - 38.5 °F 100% 30.09 in 7.0 mi Calm Calm - N/A   Clear
3:35 AM 38.3 °F - 38.3 °F 100% 30.10 in 10.0 mi Calm Calm - N/A   Clear
3:55 AM 37.8 °F 35.3 °F 37.8 °F 100% 30.10 in 10.0 mi NNW 3.5 mph - N/A   Clear
4:15 AM 36.7 °F - 36.7 °F 100% 30.10 in 10.0 mi Calm Calm - N/A   Clear
4:35 AM 36.5 °F - 36.5 °F 100% 30.10 in 10.0 mi Calm Calm - N/A   Clear
4:55 AM 36.7 °F - 36.7 °F 100% 30.11 in 5.0 mi Calm Calm - N/A   Clear
5:15 AM 36.5 °F - 36.5 °F 100% 30.10 in 7.0 mi Calm Calm - N/A   Clear
5:35 AM 36.7 °F - 36.7 °F 100% 30.09 in 7.0 mi Calm Calm - N/A   Clear
5:55 AM 35.2 °F - 35.2 °F 100% 30.10 in 7.0 mi Calm Calm - N/A   Clear
6:15 AM 36.0 °F - 36.0 °F 100% 30.10 in 7.0 mi Calm Calm - N/A   Clear
6:35 AM 36.3 °F - 36.3 °F 100% 30.10 in 10.0 mi Calm Calm - N/A   Clear
6:55 AM 35.6 °F - 35.6 °F 100% 30.11 in 10.0 mi Calm Calm - N/A   Clear
7:15 AM 36.0 °F - 36.0 °F 100% 30.12 in 10.0 mi Calm Calm - N/A   Clear
7:35 AM 35.6 °F - 35.6 °F 100% 30.12 in 10.0 mi Calm Calm - N/A   Clear
7:55 AM 36.0 °F - 36.0 °F 100% 30.12 in 10.0 mi Calm Calm - N/A   Clear
8:15 AM 38.1 °F - 38.1 °F 100% 30.12 in 10.0 mi Calm Calm - N/A   Clear
8:35 AM 40.3 °F - 40.1 °F 99% 30.14 in 10.0 mi Calm Calm - N/A   Clear
8:55 AM 42.6 °F - 41.0 °F 94% 30.14 in 10.0 mi Calm Calm - N/A   Clear
9:15 AM 44.4 °F - 41.4 °F 89% 30.14 in 10.0 mi Calm Calm - N/A   Clear
9:35 AM 47.1 °F - 42.6 °F 84% 30.14 in 10.0 mi Calm Calm - N/A   Clear
9:55 AM 49.8 °F - 43.7 °F 79% 30.14 in 10.0 mi Calm Calm - N/A   Clear
10:15 AM 52.7 °F - 43.2 °F 70% 30.15 in 10.0 mi Calm Calm - N/A   Clear
10:35 AM 55.0 °F - 43.5 °F 65% 30.15 in 10.0 mi ENE 3.5 mph - N/A   Clear
10:55 AM 57.2 °F - 43.5 °F 60% 30.15 in 10.0 mi East 5.8 mph - N/A   Clear
11:35 AM 60.6 °F - 43.2 °F 53% 30.14 in 10.0 mi SE 4.6 mph - N/A   Clear
11:55 AM 61.5 °F - 43.2 °F 51% 30.14 in 10.0 mi ESE 4.6 mph - N/A   Clear
12:15 PM 63.9 °F - 42.8 °F 46% 30.14 in 10.0 mi ESE 10.4 mph - N/A   Clear
12:35 PM 63.0 °F - 41.9 °F 46% 30.14 in 10.0 mi SE 4.6 mph - N/A   Clear
12:55 PM 63.7 °F - 40.6 °F 43% 30.13 in - SE 4.6 mph - N/A   Clear
1:15 PM 64.0 °F - 41.4 °F 43% 30.13 in - South 4.6 mph - N/A   Clear
1:35 PM 64.2 °F - 41.5 °F 44% 30.12 in - SSE 3.5 mph - N/A   Clear
1:55 PM 66.0 °F - 40.6 °F 39% 30.10 in - WSW 3.5 mph - N/A   Clear
2:15 PM 66.6 °F - 39.7 °F 37% 30.09 in - South 3.5 mph - N/A   Clear
2:35 PM 65.7 °F - 40.3 °F 39% 30.08 in - South 3.5 mph - N/A   Clear
2:55 PM 67.1 °F - 40.5 °F 38% 30.08 in - ESE 3.5 mph - N/A   Clear
3:15 PM 68.0 °F - 40.3 °F 36% 30.07 in - East 4.6 mph - N/A   Clear
3:35 PM 65.3 °F - 40.8 °F 41% 30.07 in - SSE 4.6 mph - N/A   Clear
3:55 PM 65.3 °F - 41.7 °F 42% 30.07 in - SE 4.6 mph - N/A   Clear
4:35 PM 64.4 °F - 40.5 °F 41% 30.07 in - SSE 5.8 mph - N/A   Clear
4:55 PM 63.7 °F - 40.6 °F 43% 30.07 in - SSE 3.5 mph - N/A   Clear
5:15 PM 63.0 °F - 42.1 °F 46% 30.06 in 10.0 mi Calm Calm - N/A   Clear
5:35 PM 62.4 °F - 42.4 °F 48% 30.05 in 10.0 mi Calm Calm - N/A   Clear
5:55 PM 59.5 °F - 47.1 °F 63% 30.05 in 10.0 mi Calm Calm - N/A   Clear
6:15 PM 58.8 °F - 46.6 °F 64% 30.05 in 10.0 mi Calm Calm - N/A   Clear
6:35 PM 57.0 °F - 49.1 °F 75% 30.04 in 10.0 mi Calm Calm - N/A   Clear
6:55 PM 56.8 °F - 46.4 °F 68% 30.04 in 10.0 mi Calm Calm - N/A   Clear
7:15 PM 55.4 °F - 48.7 °F 78% 30.04 in - Calm Calm - N/A   Clear
7:35 PM 54.7 °F - 47.5 °F 77% 30.04 in 10.0 mi Calm Calm - N/A   Clear
7:55 PM 54.0 °F - 49.5 °F 85% 30.04 in 10.0 mi Calm Calm - N/A   Clear
8:15 PM 54.7 °F - 50.5 °F 86% 30.04 in 10.0 mi Calm Calm - N/A   Clear
8:35 PM 54.9 °F - 50.2 °F 84% 30.03 in 10.0 mi ENE 3.5 mph - N/A   Scattered Clouds
8:55 PM 54.1 °F - 50.9 °F 89% 30.03 in 10.0 mi Calm Calm - N/A   Clear
9:15 PM 54.5 °F - 50.5 °F 86% 30.03 in 10.0 mi Calm Calm - N/A   Clear
9:35 PM 55.4 °F - 49.6 °F 81% 30.03 in - Calm Calm - N/A   Scattered Clouds
9:55 PM 55.0 °F - 50.0 °F 83% 30.04 in 10.0 mi Calm Calm - N/A   Mostly Cloudy
10:15 PM 55.6 °F - 50.2 °F 82% 30.03 in 10.0 mi Calm Calm - N/A   Overcast
10:35 PM 56.3 °F - 51.6 °F 84% 30.02 in 10.0 mi Calm Calm - N/A   Overcast
10:55 PM 56.3 °F - 50.2 °F 80% 30.02 in 10.0 mi Calm Calm - N/A   Overcast
11:15 PM 56.5 °F - 50.4 °F 80% 30.02 in 10.0 mi Calm Calm - N/A   Overcast
11:35 PM 56.7 °F - 50.0 °F 78% 30.01 in 10.0 mi Calm Calm - N/A   Overcast
11:55 PM 56.7 °F - 50.4 °F 79% 30.00 in - ENE 3.5 mph - N/A   Overcast